Regional Weather Roundup
Issued by NWS State College, PA

Home | Current Version | Previous Version | Text Only | Print | Product List | Glossary Off
Versions: 1 2 3 4 5 6 7 8 9 10 11 12 13 14 15 16 17 18 19 20 21 22 23 24 25 26 27 28 29 30 31 32 33 34 35 36 37 38 39 40 41 42 43 44 45 46 47 48 49 50

000
ASUS41 KCTP 210210
RWRCTP

REGIONAL WEATHER ROUNDUP
NATIONAL WEATHER SERVICE STATE COLLEGE PA
1000 PM EDT FRI OCT 20 2017

Note: "fair" indicates few or no clouds below 12,000 feet with no
significant weather and/or obstructions to visibility.

* = STATION THAT DOES NOT REPORT PRECIPITATION /E.G. RAIN...SNOW...ETC/
    THUNDER OR FOG.

PAZ002>004-007>009-013>016-020>023-029>032-210300-
WESTERN PENNSYLVANIA

CITY           SKY/WX    TMP DP  RH WIND       PRES   REMARKS
ERIE           CLEAR     56  39  53 CALM      30.20R
MEADVILLE      CLEAR     57  37  47 S5        30.24R
FRANKLIN*      CLEAR     57  34  41 SW5       30.25R
NEW CASTLE     FAIR      50  42  74 CALM      30.25R
BEAVER COUNTY  NOT AVBL
BUTLER*        CLEAR     51  39  63 CALM      30.25R
PITTSBURGH INT CLEAR     55  40  56 CALM      30.24R
PITTSBURGH     CLEAR     60  36  40 S6        30.24R
INDIANA*       CLEAR     48  41  76 CALM      30.29R
LATROBE        CLEAR     50  41  71 CALM      30.27R
WASHINGTON CO* CLEAR     49  42  77 CALM      30.28R
$$

PAZ004>006-010>012-017>019-024>028-033>037-041-042-045-046-049>053-210300-
CENTRAL PENNSYLVANIA

CITY           SKY/WX    TMP DP  RH WIND       PRES   REMARKS
BRADFORD       CLEAR     45  37  73 CALM      30.25R
DUBOIS           N/A    N/A N/A N/A MISG      30.25R
CLEARFIELD     CLEAR     52  38  58 N3        30.26R
JOHNSTOWN      CLEAR     57  33  40 SW3       30.28R
ALTOONA        CLEAR     56  37  49 W5        30.26R
STATE COLLEGE  NOT AVBL
WILLIAMSPORT   CLEAR     52  43  71 CALM      30.23R
SELINSGROVE    CLEAR     46  44  93 CALM      30.24R
FT INDIANTOWN  CLEAR     47  43  87 NE3       30.23R
CAPITAL CITY   CLEAR     53  43  68 W3        30.23R
HARRISBURG     PTCLDY    52  48  86 CALM      30.22R
YORK           CLEAR     46  44  93 CALM      30.23S
$$

PAZ038>040-043-044-047-048-054-055-060>062-067>071-210300-
EASTERN PENNSYLVANIA

CITY           SKY/WX    TMP DP  RH WIND       PRES   REMARKS
SCRANTON       CLEAR     54  35  48 SE6       30.23S
MOUNT POCONO   CLEAR     53  32  44 NW9       30.24R
ALLENTOWN      CLEAR     55  37  50 NW3       30.22R
QUAKERTOWN*    CLEAR     48  43  81 CALM      30.23R
READING        CLEAR     54  44  69 CALM      30.22R
LANCASTER      CLEAR     55  42  61 W3        30.23R
COATESVILLE    CLEAR     57  37  47 NW5       30.24R
POTTSTOWN      CLEAR     48  41  76 CALM      30.24R
BLUE BELL      CLEAR     46  43  87 CALM      30.24R
DOYLESTOWN     CLEAR     54  42  64 CALM      30.21R
WILLOW GROVE   NOT AVBL
NORTH PHILA    CLEAR     58  41  53 NW3       30.22R
PHILADELPHIA   CLEAR     62  39  42 CALM      30.21S
$$




USA.gov is the U.S. government's official web portal to all federal, state and local government web resources and services.